Погода в Ореле

Погода в Ореле : погода сейчас, прогноз погоды и архив. Всё, что Вы хотите узнать о погоде в Ореле!

Хотите узнать прогноз погоды в Ореле? Тогда Вам сюда: Погода в Ореле

Поиск расширенной информации на нашем сайте:

Другие новости

Новости СМИ2

Главная страница сайта

Новости сайта

03.07.2017

Напоминаем, что на нашем специализированном сайте Метеоцентр.Азия вы можете получить высокодетализированные автоматические прогнозы погоды по пунктам России, СНГ и мира в авиационном формате (включающие направление и скорость ветра, видимость, явления погоды, количество и форму облачности, нижнюю и верхнюю границу облачности).


Погода в Ореле - сегодня

Время (UTC), дата Ветер
(°,м/с) 
Видим.   Явления Облачность Т
(°С)
Тd
(°С)
f(%) Тe
(°С)
Pmin
(гПа)
dP
(гПа)
Po
(мм)
O2
(г/м3)
Тmin Tmax R s Состояние
почвы
12 14.06.18 040 (СВ) 10 км    8/6 600 м кучево-дожд., средняя, верхняя 
[Cb calv|Ac trans|Ci fib]
+23.2 +12.5 51 +28  1011.9  0.5  742  273           
15 14.06.18 070 (В) 10 км    9/1 600 м кучево-дожд., средняя 
[Cb calv|Ac trans]
+22.2 +11.3 50 +25  1011.9  -0.1  742  274           
21 14.06.18 080 (В) 10 км    9/6 600 м кучево-дожд., средняя 
[Cb calv|Ac trans]
+17.9 +9.8 59 +19  1013.2  0.7  743  279           
00 15.06.18 080 (В) 10 км    5/5 600 м 
[Sc]
+15.7 +8.9 64 +16  1014.1  0.7  743  282           
09 15.06.18 080 (В) 10 км  слаб. ливневой дождь  10/10 600 м кучево-дожд. 
[Cb calv]
+11.3 +9.7 90 +13  1015.8  0.9  744  286           
15 15.06.18 080 (В) 10 км    6/3 600 м средняя, верхняя 
[Sc|Ac trans|Ci fib]
+15.9 +9.3 65 +16  1016.1  745  282         
21 15.06.18 090 (В) 10 км    6/0 средняя, верхняя 
[Ac trans|Ci fib]
+13.5 +7.1 65 +14  1016.4  0.1  745  285           
00 16.06.18 120 (ЮВ) 10 км    4/0 средняя, верхняя 
[Ac trans|Ci fib]
+12.2 +7.4 72 +13  1017.8  1.2  746  286           
09 16.06.18 110 (В) 10 км    9/9 600 м кучево-дожд. 
[Cb calv]
+17.3 +5.3 45 +18  1019.1  0.1  747  282           
12 16.06.18 090 (В) 10 км    8/6 600 м кучево-дожд., средняя 
[Cb calv|Ac trans]
+20 +6.8 42 +20  1018.2  -0.7  746  279           
15 16.06.18 080 (В) 10 км    9/4 600 м кучево-дожд., средняя 
[Cb calv|Ac trans]
+20.5 +6.2 39 +21  1018.4  0.3  747  279      0.0     
21 16.06.18 100 (В) 10 км    9/3 600 м кучево-дожд., средняя 
[Cb calv|Ac trans]
+17.5 +5.8 46 +18  1018.7  0.3  747  282           
00 17.06.18 130 (ЮВ) 10 км    9/0 средняя, верхняя 
[Ac trans|Ci fib]
+15 +6.4 56 +16  1019.3  0.3  747  284           
09 17.06.18 100 (В) 10 км    ясно 
+22.4 +4.6 31 +22  1018.6  -0.1  747  277           
12 17.06.18 100 (В) 10 км    ясно 
+24 +7.1 34 +24  1017.6  -0.9  746  275           
15 17.06.18 120 (ЮВ) 10 км    3/0 верхняя 
[Ci fib]
+24.5 +5.8 30 +25  1016.9  -0.6  746  275           
21 17.06.18 тихо ()   10 км    ясно 
+14.8 +10.3 74 +16  1017.5  0.3  746  283           
00 18.06.18 тихо ()   10 км    ясно 
+11.6 +9.8 89 +13  1017.6  0.3  746  287           
03 18.06.18 тихо ()   10 км    ясно 
+14.9 +10.7 76 +17  1017.5  -0.3  746  283  +10.4         
09 18.06.18 080 (В) 10 км    9/3 1000 м верхняя 
[Cu hum|Ci fib]
+25.4 +9.4 36 +26  1016.4  -0.4  746  273           
12 18.06.18 340 (С) 10 км    9/1 1000 м верхняя 
[Cu hum|Ci fib]
+26.2 +9.3 34 +27  1015.9  -0.4  745  272           
15 18.06.18 330 (СЗ) 10 км    3/1 600 м верхняя 
[Cu hum|Ci fib]
+26.5 +12.6 42 +31  1015  -0.9  745  271           
21 18.06.18 тихо ()   10 км    ясно 
+15.4 +11.7 79 +19  1016.1  0.3  745  282           
00 19.06.18 140 (ЮВ) 10 км    ясно 
+13 +11.7 92 +18  1016.3  0.1  745  284           
09 19.06.18 250 (З) 10 км    9/5 600 м кучево-дожд., верхняя 
[Cb calv|Ci sp]
+24.8 +14.6 53 +33  1015  -0.2  744  272           
Время (UTC), дата Ветер
(°,м/с) 
Видим.   Явления Облачность Т
(°С)
Тd
(°С)
f(%) Тe
(°С)
Pmin
(гПа)
dP
(гПа)
Po
(мм)
O2
(г/м3)
Тmin Tmax R s Состояние
почвы

Для получения пояснительной информации подведите курсор к названию столбца.

ПОГОДА в Ореле - архив

Всё, что Вы хотите узнать о погоде в Ореле - удобно и подробно!

Выберите нужную дату (начиная с 1 января 2015* года) и нажмите кнопку "Найти".
Будут отображены архивные сводки погоды по пункту Орел, начиная с указанной даты.


Отображать данные в формате CSV (для использования в таблицах Excel)


Внимание! Наш архив погоды предназначен исключительно для личного некоммерческого использования в познавательных целях. Если Вам необходимы официальные справки о состоянии погоды (для производственных, юридических, коммерческих и т.п. целей), обращайтесь в органы Росгидромета.

*Примечание: данная дата относится к архиву по метеостанциям СССР (Россия, СНГ, Балтия).
Архив по метеостанциям Зарубежной Европы и Азии (кроме Китая) хранится 10 дней, по другим регионам земного шара (Китай, Африка, Америка, Австралия, Океания) - 1 день.

Орел - район местоположения метеостанции


Название, широта, долгота, высота метеостанции:
Орел 52.9°ш. 36°д. 196 м над ур. моря [Российская Федерация]

Дополнительная информация

В oтличие oт бoльшинства пoгoдных сайтoв мы публикуем пoдрoбную метеoинфoрмацию в детальнoм прoфессиoнальнoм фoрмате.

Характеристики температуры и влажнoсти вoздуха измеряются на высoте 2 м в тени вдали oт зданий и деревьев.
Скoрoсть ветра измеряется на высoте 10 м (на урoвне рoста челoвека скoрoсть ветра ниже в 1.5-2 раза). Если метеoстанция нахoдится в гoрoде или в лесу, тo скoрoсть ветра занижена на 2-4 м/с пo сравнению с oткрытым местoм. Скoрoсть ветра над акватoриями крупных рек и oзёр, а также на вершинах хoлмoв на 2-5 м/с выше, чем в oбычных услoвиях.
Атмoсфернoе давление в разных тoчках местнoсти мoжет значительнo oтличаться oт давления на метеoстанции, в зависимoсти oт услoвий рельефа (при пoдъёме на 10 м давление пoнижается примернo на 1 мм рт.ст.).